Regional Weather Roundup
Issued by NWS

Home | Current Version | Previous Version | Text Only | Print | Product List | Glossary On
Versions: 1 2 3 4 5 6 7 8 9 10 11 12 13 14 15 16 17 18 19 20 21 22 23 24 25 26 27 28 29 30 31 32 33 34 35 36 37 38 39 40 41 42 43 44 45 46 47 48 49 50
000
ASUS43 KFSD 260002
RWRSD

WEATHER ROUNDUP FOR SOUTH DAKOTA
NATIONAL WEATHER SERVICE SIOUX FALLS SD
700 PM CDT WED APR 25 2018

NOTE: "FAIR" INDICATES FEW OR NO CLOUDS BELOW 12,000 FEET WITH NO
SIGNIFICANT WEATHER AND/OR OBSTRUCTIONS TO VISIBILITY.


SDZ001>005-009-010-012>017-260100-
NORTHWEST AND NORTH CENTRAL SOUTH DAKOTA

CITY           SKY/WX    TMP DP  RH WIND       PRES   REMARKS
BUFFALO          N/A     67  25  20 NW24      29.83R
FAITH            N/A     69  25  19 S15       29.85F
MOBRIDGE       PTSUNNY   66  32  28 S14       29.83F
$$

SDZ012>016-024>037-041>051-057-063-072>074-260100-
SOUTHWEST AND SOUTH CENTRAL SOUTH DAKOTA

CITY           SKY/WX    TMP DP  RH WIND       PRES   REMARKS
RAPID CTY ARPT CLOUDY    72  23  16 W5        29.86F
PIERRE         MOSUNNY   66  25  21 S15       29.89F
CUSTER         CLOUDY    61  16  17 SW8       29.97F
ELLSWORTH AFB  PTSUNNY   71  26  19 NW6       29.86F
PHILIP         PTSUNNY   70  22  16 S14       29.87F
PINE RIDGE     MOSUNNY   68  18  14 SW10      29.93F
SPEARFISH      FAIR      70  21  16 CALM      29.90F
WINNER         FAIR      65  25  22 S14       29.97F
$$

SDZ004>011-016>023-039-040-260100-
NORTHEAST SOUTH DAKOTA

CITY           SKY/WX    TMP DP  RH WIND       PRES   REMARKS
ABERDEEN       PTSUNNY   64  32  30 S18       29.92F
WATERTOWN      MOSUNNY   54  33  45 SW10      29.98F
BROOKINGS      MOSUNNY   56  32  40 S8        30.01F
SISSETON         N/A     59  33  37 S17       29.94F
$$

SDZ017-020-022-023-036>040-048>070-260100-
SOUTHEAST SOUTH DAKOTA

CITY           SKY/WX    TMP DP  RH WIND       PRES   REMARKS
SIOUX FALLS    MOSUNNY   59  26  28 W7        30.02F
HURON          CLOUDY    59  32  36 S13       29.97F
CHAMBERLAIN    CLOUDY    65  32  29 S14       29.97F
MITCHELL       PTSUNNY   60  36  40 S8        30.00F
YANKTON        SUNNY     59  25  27 S5        30.04F
$$

ABBREVIATIONS USED IN REMARKS
   TC - TEMPERATURE IN CELSIUS
  WCI - WIND CHILL INDEX
   HX - HEAT INDEX
  VSB - VISIBILITY





USA.gov is the U.S. government's official web portal to all federal, state and local government web resources and services.